SCP
0 0 1 0 0 0 0 0 0 0 0 0 0 0 0 0 0 0 0 0 0 0 0 0 0 0 0 0 0 0 0 0 0 0 0 0 0 0 0 0 0 0 0
0 0 1 0 -0 0 0 0 0 0 0 0 0 0 0 0 0 0 0 0 0 0 0 0 0 0 0 0 0 0 0 0 0 0 0 0 0 0 0 0 0 0 0
0 0 0 1 0 0 0 0 0 0 0 0 0 0 0 0 0 0 0 0 0 0 0 0 0 0 0 0 0 0 0 0 0 0 0 0 0 0 0 0 0 0 0
0 0 0 0 1 1 0 0 0 0 0 0 0 0 0 0 0 0 0 0 0 0 0 0 0 0 0 0 0 0 0 0 0 0 0 0 0 0 0 0 0 0 0
0 0 0 0 0 1 0 0 0 0 0 0 0 0 0 0 0 0 0 0 0 0 0 0 0 0 0 0 0 0 0 0 0 0 0 0 0 0 0 0 0 0 0
0 0 0 0 0 1 0 0 0 0 0 0 0 0 0 0 0 0 0 0 0 0 0 0 0 0 0 0 0 0 0 0 0 0 0 0 0 0 0 0 0 0 0
0 0 0 0 0 0 0 0 0 0 0 0 0 0 0 0 0 0 0 0 0 0 0 0 0 0 0 0 0 0 0 0 0 0 0 0 0 0 0 0 0 0 0
0 0 0 0 0 0 0 0 0 0 0 0 0 0 0 0 0 0 0 0 0 0 0 0 0 0 0 0 0 0 0 0 0 0 0 0 0 0 0 0 0 0 0
0 0 0 0 0 0 0 0 0 0 0 0 0 0 0 0 0 0 0 0 0 0 0 0 0 0 0 0 0 0 0 0 0 0 0 0 0 0 0 0 0 0 0
0 0 0 0 0 0 0 0 0 0 0 0 0 0 0 0 0 0 0 0 0 0 0 0 0 0 0 0 0 0 0 0 0 0 0 0 0 0 0 0 0 0 0
0 0 0 0 0 0 0 0 0 0 0 0 0 0 0 0 0 0 0 0 0 0 0 0 0 0 0 0 0 0 0 0 0 0 0 0 0 0 0 0 0 0 0
0 0 0 0 0 0 0 0 0 0 0 0 0 0 0 0 0 0 0 0 0 0 0 0 0 0 0 0 0 0 0 0 0 0 0 0 0 0 0 0 0 0 0
0 0 0 0 0 0 0 0 0 0 0 0 0 0 0 0 0 0 0 0 0 0 0 0 0 0 0 0 0 0 0 0 0 0 0 0 0 0 0 0 0 0 0
0 0 0 0 0 0 0 0 0 0 0 0 0 0 0 0 0 0 0 0 0 0 0 0 0 0 0 0 0 0 0 0 0 0 0 0 0 0 0 0 0 0 0
0 0 0 0 0 0 0 0 0 0 0 0 0 0 0 0 0 0 0 0 0 0 0 0 0 0 0 0 0 0 0 0 0 0 0 0 0 0 0 0 0 0 0
0 0 0 0 0 0 0 0 0 0 0 0 0 0 0 0 0 0 0 0 0 0 0 0 0 0 0 0 0 0 0 0 0 0 0 0 0 0 0 0 0 0 0
0 0 0 0 0 0 0 0 0 0 0 0 0 0 0 0 0 0 0 0 0 0 0 0 0 0 0 0 0 0 0 0 0 0 0 0 0 0 0 0 0 0 0
0 0 0 0 0 0 0 0 0 0 0 0 0 0 0 0 0 0 0 0 0 0 0 0 0 0 0 0 0 0 0 0 0 0 0 0 0 0 0 0 0 0 0
0 0 0 0 0 0 0 0 0 0 0 0 0 0 0 0 0 0 0 0 0 0 0 0 0 0 0 0 0 0 0 0 0 0 0 0 0 0 0 0 0 0 0
0 0 0 0 0 0 0 0 0 0 0 0 0 0 0 0 0 0 0 0 0 0 0 0 0 0 0 0 0 0 0 0 0 0 0 0 0 0 0 0 0 0 0
0 0 0 0 0 0 0 0 0 0 0 0 0 0 0 0 0 0 0 0 0 0 0 0 0 0 0 0 0 0 0 0 0 0 0 0 0 0 0 0 0 0 0
-0 0 0 0 0 0 0 0 0 0 0 0 0 0 0 0 0 0 0 0 0 0 0 0 0 0 0 0 0 0 0 0 0 0 0 0 0 0 0 0 0 0 0
0 0 0 0 0 0 0 0 0 0 0 0 0 0 0 0 0 0 0 0 0 0 0 0 0 0 0 0 0 0 0 0 0 0 0 0 0 0 0 0 -0 0 0
-0 0 -0 -0 -0 0 0 0 -0 0 0 0 0 0 0 0 0 0 0 0 0 0 0 0 0 0 0 0 0 0 0 0 0 0 0 0 0 0 0 0 -0 -0 -0
-0 -0 0 0 -0 -0 -0 -0 -0 -0 0 0 0 0 0 0 0 0 0 0 0 0 0 0 0 0 0 0 0 0 0 0 0 0 0 0 0 0 0 0 -0 -0 -0
0 0 -0 -0 -0 -0 -0 -0 0 0 0 0 0 0 0 0 0 0 0 0 0 0 0 0 0 0 0 0 0 0 0 0 0 0 0 0 0 0 0 0 0 0 0
Wind_Speed_500mb
16 21 23 25 40 51 47 19 32 33 36 47 51 50 52 53 46 41 39 34 40 31 25 22 20 22 22 25 28 31 31 28 26 25 24 22 22 21 21 20 19 18 19
24 17 18 21 19 34 30 31 28 51 42 44 50 50 52 60 49 41 38 34 43 34 30 29 30 30 30 27 28 32 32 30 28 27 24 23 24 23 22 24 25 25 27
29 34 23 26 28 37 47 52 47 57 48 43 50 51 51 52 51 44 44 39 38 41 40 35 33 35 36 34 33 32 31 30 30 27 27 30 27 22 39 44 35 35 34
34 33 38 35 32 36 47 49 58 58 44 46 61 54 50 52 50 53 49 40 35 38 51 48 41 37 34 43 40 35 32 33 35 38 32 28 23 34 50 29 21 32 26
48 44 40 44 40 38 43 54 65 64 52 51 45 49 50 53 54 50 47 43 41 42 47 52 47 43 40 35 31 38 48 49 43 37 37 33 31 31 34 38 43 45 44
60 48 45 45 43 44 45 49 61 68 58 60 56 55 56 55 57 56 60 58 43 42 44 46 50 45 42 39 25 43 46 41 43 38 41 39 35 37 41 41 42 47 45
42 53 50 45 46 46 46 53 62 63 64 62 62 65 73 71 78 72 80 75 60 45 50 57 53 45 46 48 51 46 48 46 46 48 51 52 48 44 47 49 47 48 56
39 44 39 48 45 51 49 49 56 60 66 80 69 52 33 40 54 44 45 43 58 65 61 66 63 68 62 64 62 67 61 60 57 58 59 60 59 49 45 47 54 57 57
42 42 46 43 49 48 51 54 60 62 61 64 74 50 28 21 45 41 48 63 74 72 66 67 73 75 66 73 70 76 76 73 72 66 69 62 59 47 50 50 52 57 61
38 43 48 51 53 39 50 57 62 61 62 63 72 80 54 41 37 27 38 43 50 67 69 74 61 62 62 55 54 63 63 72 70 65 49 48 41 41 49 55 55 58 61
38 44 46 50 49 56 42 53 59 57 66 67 86 73 81 66 46 33 38 53 50 54 60 61 65 61 66 68 66 57 58 53 46 46 46 40 43 49 49 50 55 56 54
36 41 44 48 50 56 54 53 61 62 65 65 66 80 91 83 66 55 42 61 59 52 53 55 57 61 59 55 50 48 46 40 36 39 46 51 50 43 43 45 49 53 56
34 33 35 38 44 48 53 61 62 70 66 84 80 81 84 91 88 71 68 73 67 52 43 49 53 54 50 49 49 41 34 30 39 47 40 34 35 40 44 47 53 57 61
29 25 31 36 35 41 47 57 55 64 62 67 80 86 93 95 79 78 71 69 55 43 47 43 52 52 46 42 34 30 27 29 31 33 33 36 41 46 51 56 61 64 67
23 26 27 30 31 43 45 49 44 53 53 67 62 64 62 57 52 59 54 61 60 44 52 44 32 40 33 30 28 28 24 26 29 34 38 41 46 51 56 59 65 69 71
25 23 25 23 27 38 42 46 42 42 45 42 44 41 40 36 34 33 35 40 43 31 36 34 39 31 32 26 22 19 22 27 34 39 43 48 52 56 60 64 67 69 72
21 20 21 23 26 28 28 35 41 39 46 42 41 35 38 35 33 30 24 26 22 18 21 31 34 30 17 15 17 22 27 32 36 42 45 49 54 57 59 61 67 70 69
29 29 30 33 36 41 41 41 46 53 51 51 50 41 46 38 32 30 25 18 11 10 13 20 22 16 13 16 22 27 32 36 37 42 46 51 56 58 56 68 70 68 62
42 48 52 57 61 63 66 64 55 53 52 46 46 40 40 30 35 32 27 27 23 19 16 16 12 9 13 20 26 31 36 40 41 44 50 53 51 56 63 61 60 53 51
63 66 70 70 67 64 58 55 55 53 54 52 48 49 48 38 37 29 22 21 19 16 13 9 4 7 15 21 30 37 41 47 49 49 53 52 61 70 68 61 49 45 49
70 70 70 70 67 66 60 53 53 49 48 46 45 43 36 36 33 26 19 15 12 13 9 6 7 13 21 28 34 39 48 53 55 53 54 65 73 76 69 55 59 56 60
70 67 65 64 64 61 53 49 46 43 40 39 40 37 31 27 23 19 15 12 12 13 10 10 14 20 25 32 38 44 51 59 67 54 75 82 76 81 62 65 71 77 72
59 60 60 57 57 53 45 40 38 36 35 34 33 29 25 20 16 14 10 9 11 11 12 15 18 23 30 35 43 49 54 58 63 69 73 91 79 76 72 79 84 76 57
50 49 49 48 48 46 38 34 31 29 28 28 25 23 18 14 13 14 14 14 13 14 16 20 24 27 33 39 45 51 57 62 69 70 60 91 76 82 86 92 75 65 70
40 39 38 36 35 34 29 27 25 24 23 21 18 14 14 11 9 9 11 13 15 18 20 22 26 31 36 39 44 53 54 61 72 73 61 56 76 89 100 76 68 64 76
33 32 30 28 27 25 23 19 17 16 15 14 12 10 11 13 15 18 21 23 24 28 29 30 32 35 39 41 43 50 53 58 61 69 52 64 76 75 90 80 71 97 92
Wind_Direction_500mb
238 240 234 242 232 245 218 193 182 210 214 207 206 215 212 213 214 208 209 223 211 220 225 222 223 227 224 219 217 214 214 212 211 211 215 211 213 214 219 233 244 252 266
257 238 215 219 196 230 221 237 250 246 224 211 213 217 218 220 220 217 218 224 217 224 231 230 232 230 235 230 226 224 221 220 219 221 221 225 223 231 244 248 257 264 264
267 255 232 218 213 213 228 233 225 218 231 228 223 224 220 224 230 226 223 224 222 223 233 236 241 241 235 235 232 232 219 213 213 222 232 236 240 232 256 263 257 255 249
262 263 252 228 222 226 229 232 218 211 213 239 229 225 229 229 236 239 236 235 232 230 231 235 239 244 250 240 230 222 203 212 215 221 225 227 226 236 229 226 209 221 238
258 258 256 241 216 225 228 235 222 219 221 230 229 219 217 226 232 229 227 225 225 226 232 231 238 245 250 255 252 225 209 195 203 212 217 233 247 250 250 259 269 271 275
250 256 246 240 234 233 234 235 236 236 231 221 218 218 241 221 235 243 245 236 234 236 240 238 237 239 247 245 190 166 168 188 210 226 238 245 247 255 261 262 261 266 260
230 234 251 246 233 233 234 223 236 236 220 219 221 222 220 238 245 236 238 244 256 251 247 248 237 219 209 198 199 188 213 238 241 246 250 257 255 258 265 268 266 265 272
236 230 231 238 233 231 232 225 229 227 218 231 210 196 180 189 190 198 205 235 248 242 249 243 234 224 214 217 210 223 229 230 236 251 259 262 270 272 274 273 275 278 280
243 239 236 225 229 232 231 228 229 225 216 225 223 201 190 194 194 200 196 225 225 220 218 210 202 221 230 214 239 222 240 244 249 252 259 262 267 263 270 271 279 285 288
244 246 242 239 229 218 238 233 233 225 210 208 215 227 218 217 188 198 211 205 196 197 194 199 208 218 203 214 234 233 232 245 250 253 252 255 257 270 278 284 288 289 291
252 251 250 246 237 223 228 236 232 232 226 224 222 218 217 222 218 200 194 200 197 197 196 201 201 213 227 230 230 236 241 245 246 251 253 265 277 283 286 287 290 291 293
263 258 251 244 239 231 231 234 232 231 230 235 230 227 229 221 222 214 207 192 197 198 201 205 209 214 216 219 222 230 242 247 256 267 276 280 283 284 285 287 289 290 291
262 255 250 250 241 234 232 240 238 236 239 237 237 228 229 230 231 232 221 194 189 193 196 202 206 209 211 218 225 230 240 257 268 280 288 286 286 289 290 294 295 294 293
252 241 241 242 232 241 232 237 229 232 225 231 234 237 231 224 225 217 210 203 183 185 195 203 205 210 211 215 226 242 256 273 285 287 289 289 289 291 295 295 295 294 293
235 232 232 230 225 226 234 242 227 227 224 233 241 219 215 207 195 200 206 203 212 182 198 207 206 208 212 222 234 251 275 290 288 283 283 287 291 292 293 294 294 295 297
220 213 211 204 206 208 212 224 210 202 190 189 185 176 179 177 184 190 197 201 207 213 195 208 210 208 214 224 243 264 268 269 276 284 288 290 293 296 298 298 298 301 302
177 169 165 170 177 181 179 175 169 172 152 140 142 142 135 133 129 132 147 169 182 175 174 188 203 210 228 236 249 262 271 279 283 289 293 295 297 299 302 305 305 302 299
144 142 139 137 138 131 125 131 131 125 122 110 111 111 109 106 109 112 122 135 143 146 162 163 169 190 228 259 270 277 284 288 292 295 298 301 302 305 309 309 305 301 300
133 130 129 126 124 123 125 123 121 115 110 109 113 104 89 97 99 98 108 117 125 130 129 131 155 212 258 278 286 294 298 298 304 304 306 306 306 309 311 308 301 299 299
116 116 115 115 111 108 107 107 107 106 112 115 115 107 110 114 106 108 110 107 109 112 108 110 144 276 288 294 305 310 309 313 313 312 309 308 314 314 318 314 307 304 304
111 106 103 99 98 98 101 104 106 109 108 107 102 100 102 92 95 96 91 90 90 77 63 30 342 316 322 319 316 315 316 315 312 316 316 317 319 315 321 314 313 314 316
101 108 110 111 112 107 106 106 108 108 106 102 101 101 98 94 95 92 83 70 55 43 21 352 331 324 323 319 317 319 319 322 322 325 319 318 320 316 318 314 318 326 327
111 111 110 110 107 105 105 105 105 106 105 101 98 98 95 89 79 70 56 35 23 1 337 331 328 326 321 321 320 325 322 317 313 316 319 313 320 312 317 319 324 322 325
115 113 111 109 110 108 109 108 108 105 101 94 90 82 79 72 52 30 13 0 346 337 333 332 330 326 322 325 322 316 315 312 312 315 326 306 317 315 318 318 321 321 322
115 114 111 108 105 103 99 92 85 80 75 73 69 64 51 36 21 355 331 320 320 321 319 318 322 325 323 321 315 311 315 310 311 314 325 300 316 315 318 323 323 318 314
119 115 114 111 107 100 93 85 77 68 62 57 49 30 6 353 348 331 318 320 321 320 320 316 317 320 319 317 313 312 314 309 310 315 319 306 309 320 318 311 303 310 309
Wind_Speed_850mb
16 21 23 25 40 51 47 19 32 33 36 47 51 50 52 53 46 41 39 34 40 31 25 22 20 22 22 25 28 31 31 28 26 25 24 22 22 21 21 20 19 18 19
24 17 18 21 19 34 30 31 28 51 42 44 50 50 52 60 49 41 38 34 43 34 30 29 30 30 30 27 28 32 32 30 28 27 24 23 24 23 22 24 25 25 27
29 34 23 26 28 37 47 52 47 57 48 43 50 51 51 52 51 44 44 39 38 41 40 35 33 35 36 34 33 32 31 30 30 27 27 30 27 22 39 44 35 35 34
34 33 38 35 32 36 47 49 58 58 44 46 61 54 50 52 50 53 49 40 35 38 51 48 41 37 34 43 40 35 32 33 35 38 32 28 23 34 50 29 21 32 26
48 44 40 44 40 38 43 54 65 64 52 51 45 49 50 53 54 50 47 43 41 42 47 52 47 43 40 35 31 38 48 49 43 37 37 33 31 31 34 38 43 45 44
60 48 45 45 43 44 45 49 61 68 58 60 56 55 56 55 57 56 60 58 43 42 44 46 50 45 42 39 25 43 46 41 43 38 41 39 35 37 41 41 42 47 45
42 53 50 45 46 46 46 53 62 63 64 62 62 65 73 71 78 72 80 75 60 45 50 57 53 45 46 48 51 46 48 46 46 48 51 52 48 44 47 49 47 48 56
39 44 39 48 45 51 49 49 56 60 66 80 69 52 33 40 54 44 45 43 58 65 61 66 63 68 62 64 62 67 61 60 57 58 59 60 59 49 45 47 54 57 57
42 42 46 43 49 48 51 54 60 62 61 64 74 50 28 21 45 41 48 63 74 72 66 67 73 75 66 73 70 76 76 73 72 66 69 62 59 47 50 50 52 57 61
38 43 48 51 53 39 50 57 62 61 62 63 72 80 54 41 37 27 38 43 50 67 69 74 61 62 62 55 54 63 63 72 70 65 49 48 41 41 49 55 55 58 61
38 44 46 50 49 56 42 53 59 57 66 67 86 73 81 66 46 33 38 53 50 54 60 61 65 61 66 68 66 57 58 53 46 46 46 40 43 49 49 50 55 56 54
36 41 44 48 50 56 54 53 61 62 65 65 66 80 91 83 66 55 42 61 59 52 53 55 57 61 59 55 50 48 46 40 36 39 46 51 50 43 43 45 49 53 56
34 33 35 38 44 48 53 61 62 70 66 84 80 81 84 91 88 71 68 73 67 52 43 49 53 54 50 49 49 41 34 30 39 47 40 34 35 40 44 47 53 57 61
29 25 31 36 35 41 47 57 55 64 62 67 80 86 93 95 79 78 71 69 55 43 47 43 52 52 46 42 34 30 27 29 31 33 33 36 41 46 51 56 61 64 67
23 26 27 30 31 43 45 49 44 53 53 67 62 64 62 57 52 59 54 61 60 44 52 44 32 40 33 30 28 28 24 26 29 34 38 41 46 51 56 59 65 69 71
25 23 25 23 27 38 42 46 42 42 45 42 44 41 40 36 34 33 35 40 43 31 36 34 39 31 32 26 22 19 22 27 34 39 43 48 52 56 60 64 67 69 72
21 20 21 23 26 28 28 35 41 39 46 42 41 35 38 35 33 30 24 26 22 18 21 31 34 30 17 15 17 22 27 32 36 42 45 49 54 57 59 61 67 70 69
29 29 30 33 36 41 41 41 46 53 51 51 50 41 46 38 32 30 25 18 11 10 13 20 22 16 13 16 22 27 32 36 37 42 46 51 56 58 56 68 70 68 62
42 48 52 57 61 63 66 64 55 53 52 46 46 40 40 30 35 32 27 27 23 19 16 16 12 9 13 20 26 31 36 40 41 44 50 53 51 56 63 61 60 53 51
63 66 70 70 67 64 58 55 55 53 54 52 48 49 48 38 37 29 22 21 19 16 13 9 4 7 15 21 30 37 41 47 49 49 53 52 61 70 68 61 49 45 49
70 70 70 70 67 66 60 53 53 49 48 46 45 43 36 36 33 26 19 15 12 13 9 6 7 13 21 28 34 39 48 53 55 53 54 65 73 76 69 55 59 56 60
70 67 65 64 64 61 53 49 46 43 40 39 40 37 31 27 23 19 15 12 12 13 10 10 14 20 25 32 38 44 51 59 67 54 75 82 76 81 62 65 71 77 72
59 60 60 57 57 53 45 40 38 36 35 34 33 29 25 20 16 14 10 9 11 11 12 15 18 23 30 35 43 49 54 58 63 69 73 91 79 76 72 79 84 76 57
50 49 49 48 48 46 38 34 31 29 28 28 25 23 18 14 13 14 14 14 13 14 16 20 24 27 33 39 45 51 57 62 69 70 60 91 76 82 86 92 75 65 70
40 39 38 36 35 34 29 27 25 24 23 21 18 14 14 11 9 9 11 13 15 18 20 22 26 31 36 39 44 53 54 61 72 73 61 56 76 89 100 76 68 64 76
33 32 30 28 27 25 23 19 17 16 15 14 12 10 11 13 15 18 21 23 24 28 29 30 32 35 39 41 43 50 53 58 61 69 52 64 76 75 90 80 71 97 92
Wind_Direction_850mb
238 240 234 242 232 245 218 193 182 210 214 207 206 215 212 213 214 208 209 223 211 220 225 222 223 227 224 219 217 214 214 212 211 211 215 211 213 214 219 233 244 252 266
257 238 215 219 196 230 221 237 250 246 224 211 213 217 218 220 220 217 218 224 217 224 231 230 232 230 235 230 226 224 221 220 219 221 221 225 223 231 244 248 257 264 264
267 255 232 218 213 213 228 233 225 218 231 228 223 224 220 224 230 226 223 224 222 223 233 236 241 241 235 235 232 232 219 213 213 222 232 236 240 232 256 263 257 255 249
262 263 252 228 222 226 229 232 218 211 213 239 229 225 229 229 236 239 236 235 232 230 231 235 239 244 250 240 230 222 203 212 215 221 225 227 226 236 229 226 209 221 238
258 258 256 241 216 225 228 235 222 219 221 230 229 219 217 226 232 229 227 225 225 226 232 231 238 245 250 255 252 225 209 195 203 212 217 233 247 250 250 259 269 271 275
250 256 246 240 234 233 234 235 236 236 231 221 218 218 241 221 235 243 245 236 234 236 240 238 237 239 247 245 190 166 168 188 210 226 238 245 247 255 261 262 261 266 260
230 234 251 246 233 233 234 223 236 236 220 219 221 222 220 238 245 236 238 244 256 251 247 248 237 219 209 198 199 188 213 238 241 246 250 257 255 258 265 268 266 265 272
236 230 231 238 233 231 232 225 229 227 218 231 210 196 180 189 190 198 205 235 248 242 249 243 234 224 214 217 210 223 229 230 236 251 259 262 270 272 274 273 275 278 280
243 239 236 225 229 232 231 228 229 225 216 225 223 201 190 194 194 200 196 225 225 220 218 210 202 221 230 214 239 222 240 244 249 252 259 262 267 263 270 271 279 285 288
244 246 242 239 229 218 238 233 233 225 210 208 215 227 218 217 188 198 211 205 196 197 194 199 208 218 203 214 234 233 232 245 250 253 252 255 257 270 278 284 288 289 291
252 251 250 246 237 223 228 236 232 232 226 224 222 218 217 222 218 200 194 200 197 197 196 201 201 213 227 230 230 236 241 245 246 251 253 265 277 283 286 287 290 291 293
263 258 251 244 239 231 231 234 232 231 230 235 230 227 229 221 222 214 207 192 197 198 201 205 209 214 216 219 222 230 242 247 256 267 276 280 283 284 285 287 289 290 291
262 255 250 250 241 234 232 240 238 236 239 237 237 228 229 230 231 232 221 194 189 193 196 202 206 209 211 218 225 230 240 257 268 280 288 286 286 289 290 294 295 294 293
252 241 241 242 232 241 232 237 229 232 225 231 234 237 231 224 225 217 210 203 183 185 195 203 205 210 211 215 226 242 256 273 285 287 289 289 289 291 295 295 295 294 293
235 232 232 230 225 226 234 242 227 227 224 233 241 219 215 207 195 200 206 203 212 182 198 207 206 208 212 222 234 251 275 290 288 283 283 287 291 292 293 294 294 295 297
220 213 211 204 206 208 212 224 210 202 190 189 185 176 179 177 184 190 197 201 207 213 195 208 210 208 214 224 243 264 268 269 276 284 288 290 293 296 298 298 298 301 302
177 169 165 170 177 181 179 175 169 172 152 140 142 142 135 133 129 132 147 169 182 175 174 188 203 210 228 236 249 262 271 279 283 289 293 295 297 299 302 305 305 302 299
144 142 139 137 138 131 125 131 131 125 122 110 111 111 109 106 109 112 122 135 143 146 162 163 169 190 228 259 270 277 284 288 292 295 298 301 302 305 309 309 305 301 300
133 130 129 126 124 123 125 123 121 115 110 109 113 104 89 97 99 98 108 117 125 130 129 131 155 212 258 278 286 294 298 298 304 304 306 306 306 309 311 308 301 299 299
116 116 115 115 111 108 107 107 107 106 112 115 115 107 110 114 106 108 110 107 109 112 108 110 144 276 288 294 305 310 309 313 313 312 309 308 314 314 318 314 307 304 304
111 106 103 99 98 98 101 104 106 109 108 107 102 100 102 92 95 96 91 90 90 77 63 30 342 316 322 319 316 315 316 315 312 316 316 317 319 315 321 314 313 314 316
101 108 110 111 112 107 106 106 108 108 106 102 101 101 98 94 95 92 83 70 55 43 21 352 331 324 323 319 317 319 319 322 322 325 319 318 320 316 318 314 318 326 327
111 111 110 110 107 105 105 105 105 106 105 101 98 98 95 89 79 70 56 35 23 1 337 331 328 326 321 321 320 325 322 317 313 316 319 313 320 312 317 319 324 322 325
115 113 111 109 110 108 109 108 108 105 101 94 90 82 79 72 52 30 13 0 346 337 333 332 330 326 322 325 322 316 315 312 312 315 326 306 317 315 318 318 321 321 322
115 114 111 108 105 103 99 92 85 80 75 73 69 64 51 36 21 355 331 320 320 321 319 318 322 325 323 321 315 311 315 310 311 314 325 300 316 315 318 323 323 318 314
119 115 114 111 107 100 93 85 77 68 62 57 49 30 6 353 348 331 318 320 321 320 320 316 317 320 319 317 313 312 314 309 310 315 319 306 309 320 318 311 303 310 309